Location: Centerville
(32.8776°N, 96.6203°W)
Time: 05:02:58
(UTC+00:00)

Cosmos 1954 Rocket - Pass Details

Date: 17 June 2021
Orbit: 752 x 781 km, 74.1° (Epoch: 29 July)

Event Time Altitude Azimuth Distance (km) Brightness Sun altitude
Rises 02:52:21 0° 349° (NNW) 3,271 8.1 -13.9°
Reaches altitude 10° 02:54:49 10° 354° (N) 2,340 7.2 -14.3°
Maximum altitude 03:00:01 53° 71° (ENE) 953 4.3 -15.1°
Enters shadow 03:02:58 25° 138° (SE) 1,547 5.0 -15.6°
